CW8490 Weather Reports


Display with metric or nautical units.
time (UTC)temp
F
wind
direction
speed
MPH
gust
MPH
rain 1hr
in
rain 24hr
in
rain mn
in
humidity
%
barometer
mb
20260504020218 68 158 1.0 1.0 0.00 0.00 0.00 67 1007.4
20260504015216 69 0.0 0.0 0.00 0.00 0.00 65 1007.4
20260504014216 70 0.0 0.0 0.00 0.00 0.00 62 1007.4
20260504013216 71 0.0 0.0 0.00 0.00 0.00 58 1007.4
20260504012216 72 0.0 0.0 0.00 0.00 0.00 56 1007.4
20260504011216 73 0.0 1.0 0.00 0.00 0.00 55 1007.3
20260504010216 74 158 1.0 2.0 0.00 0.00 0.00 54 1007.4
20260504005216 75 225 1.0 2.0 0.00 0.00 0.00 52 1007.5
20260504004216 75 203 1.0 2.0 0.00 0.00 0.00 51 1007.5
20260504003217 76 180 1.0 4.0 0.00 0.00 0.00 47 1007.4
20260504002216 77 225 1.0 3.0 0.00 0.00 0.00 44 1007.4
20260504001216 78 248 1.0 3.0 0.00 0.00 0.00 40 1007.6
20260504000219 79 248 2.0 5.0 0.00 0.00 0.00 37 1007.6
20260503235216 80 248 2.0 3.0 0.00 0.00 0.00 36 1007.5
20260503234216 81 293 5.0 8.0 0.00 0.00 0.00 34 1007.8
20260503233216 81 248 3.0 5.0 0.00 0.00 0.00 36 1007.8
20260503232217 82 293 4.0 9.0 0.00 0.00 0.00 34 1007.7
20260503231216 82 293 5.0 9.0 0.00 0.00 0.00 31 1007.8
20260503230216 82 293 6.0 14.0 0.00 0.00 0.00 35 1007.8
20260503225236 82 248 5.0 10.0 0.00 0.00 0.00 38 1007.9
20260503224216 82 270 7.0 12.0 0.00 0.00 0.00 37 1008.0
20260503223236 82 270 4.0 8.0 0.00 0.00 0.00 39 1008.1
20260503222216 82 293 5.0 8.0 0.00 0.00 0.00 38 1008.2
20260503221216 82 248 5.0 10.0 0.00 0.00 0.00 41 1008.3
20260503220216 82 225 4.0 6.0 0.00 0.00 0.00 46 1008.4
20260503215216 82 248 6.0 11.0 0.00 0.00 0.00 45 1008.5
20260503214217 81 270 5.0 7.0 0.00 0.00 0.00 45 1008.6
20260503213216 81 293 4.0 8.0 0.00 0.00 0.00 45 1008.8
20260503212216 81 248 6.0 8.0 0.00 0.00 0.00 45 1008.8
20260503211311 81 90 4.0 4.0 0.00 0.00 0.00 47 1009.0
20260503210817 81 225 5.0 11.0 0.00 0.00 0.00 45 1009.1
20260503205817 80 225 2.0 4.0 0.00 0.00 0.00 46 1009.2
20260503204816 80 270 4.0 6.0 0.00 0.00 0.00 49 1009.4
20260503203816 79 293 5.0 7.0 0.00 0.00 0.00 48 1009.5
20260503202837 79 293 6.0 10.0 0.00 0.00 0.00 46 1009.7
20260503201816 79 293 6.0 10.0 0.00 0.00 0.00 46 1009.9
20260503200817 78 293 3.0 6.0 0.00 0.00 0.00 47 1010.0
20260503195817 78 293 4.0 7.0 0.00 0.00 0.00 50 1010.1
20260503194817 78 293 6.0 9.0 0.00 0.00 0.00 47 1010.2
20260503193817 78 270 7.0 11.0 0.00 0.00 0.00 47 1010.4
20260503192837 78 293 4.0 7.0 0.00 0.00 0.00 50 1010.4
20260503191816 77 270 4.0 6.0 0.00 0.00 0.00 50 1010.5
20260503190817 77 270 6.0 11.0 0.00 0.00 0.00 47 1010.8
20260503185817 77 270 5.0 10.0 0.00 0.00 0.00 48 1010.8
20260503184857 76 270 3.0 5.0 0.00 0.00 0.00 52 1011.0
20260503183817 76 293 8.0 14.0 0.00 0.00 0.00 50 1011.1
20260503182817 76 293 7.0 9.0 0.00 0.00 0.00 51 1011.0
20260503181817 76 270 8.0 12.0 0.00 0.00 0.00 51 1011.2
20260503180817 76 293 7.0 10.0 0.00 0.00 0.00 51 1011.3
20260503175817 75 248 3.0 5.0 0.00 0.00 0.00 55 1011.5
20260503174837 74 203 7.0 14.0 0.00 0.00 0.00 55 1011.7
20260503173837 74 225 12.0 18.0 0.00 0.00 0.00 53 1012.0
20260503172837 73 293 8.0 12.0 0.00 0.00 0.00 53 1012.0
20260503171837 73 270 8.0 15.0 0.00 0.00 0.00 53 1012.3
20260503170817 72 293 6.0 10.0 0.00 0.00 0.00 54 1012.3
20260503150817 64 293 6.0 10.0 0.00 0.00 0.00 59 1013.5
20260503130817 54 203 8.0 11.0 0.00 0.00 0.00 65 1014.7
20260503081018 45 203 2.0 2.0 0.00 0.00 0.00 77 1015.9
20260503072017 45 158 1.0 1.0 0.00 0.00 0.00 77 1016.2
20260503071018 45 0.0 1.0 0.00 0.00 0.00 77 1016.3
20260503055016 45 180 1.0 2.0 0.00 0.00 0.00 78 1016.9
20260503054016 44 0.0 0.0 0.00 0.00 0.00 79 1017.1
20260503053016 44 0.0 1.0 0.00 0.00 0.00 80 1017.1
20260503052016 44 0.0 0.0 0.00 0.00 0.00 79 1017.1
20260503051016 44 0.0 0.0 0.00 0.00 0.00 79 1017.2
20260503050016 44 0.0 0.0 0.00 0.00 0.00 80 1017.3
20260503045017 43 0.0 0.0 0.00 0.00 0.00 80 1017.2
20260503044017 43 0.0 0.0 0.00 0.00 0.00 83 1017.3
20260503043017 42 0.0 0.0 0.00 0.00 0.00 84 1017.4
20260503042017 42 0.0 0.0 0.00 0.00 0.00 83 1017.4
20260503041017 42 0.0 0.0 0.00 0.00 0.00 83 1017.5
20260503040017 42 0.0 0.0 0.00 0.00 0.00 82 1017.5
20260503035017 42 0.0 0.0 0.00 0.00 0.00 80 1017.6
20260503034017 42 0.0 0.0 0.00 0.00 0.00 78 1017.7
20260503033018 43 0.0 0.0 0.00 0.00 0.00 77 1017.8
20260503032017 43 0.0 0.0 0.00 0.00 0.00 75 1017.8
20260503031017 44 0.0 0.0 0.00 0.00 0.00 75 1017.9
20260503030017 44 0.0 0.0 0.00 0.00 0.00 74 1017.9
20260503025037 44 0.0 0.0 0.00 0.00 0.00 72 1017.9
20260503024017 45 0.0 0.0 0.00 0.00 0.00 71 1017.8
20260503023017 45 0.0 0.0 0.00 0.00 0.00 68 1017.7
20260503022017 46 0.0 0.0 0.00 0.00 0.00 66 1017.9
20260503021017 48 0.0 0.0 0.00 0.00 0.00 64 1017.7